This demonstration page uses our WeatherBlox Daily Observations layout. Learn more.

38.89511, -77.03637

Hourly Observations for August 25, 2015

Temp ( °F °C ) Dew Point ( °F °C ) Humidity (%) Winds ( mph kmh ) Pressure ( in mb ) Visibility ( mi km ) Precip ( " mm )
12:32 am 00:32 Mostly Cloudy 77 25 73 23 89 89 Calm 29.88 1012 10 16.09344 0 0
12:52 am 00:52 Mostly Cloudy 75 24 73 23 94 94 Calm 29.88 1012 10 16.09344 0 0
1:52 am 01:52 Partly Cloudy 75 24 73 23 94 94 NNW 7 11 29.88 1012 10 16.09344 0 0
2:52 am 02:52 Mostly Clear 73 23 70 21 89 89 NNW 8 13 29.88 1012 10 16.09344 0 0
3:52 am 03:52 Mostly Clear 73 23 66 19 78 78 N 9 15 29.88 1012 10 16.09344 0 0
4:52 am 04:52 Mostly Clear 72 22 63 17 73 73 NNW 6 9 29.88 1012 10 16.09344 0 0
5:52 am 05:52 Partly Cloudy 70 21 63 17 78 78 N 8 13 29.88 1012 10 16.09344 0 0
6:52 am 06:52 Mostly Cloudy 70 21 61 16 73 73 NNW 8 13 29.91 1013 10 16.09344 0 0
7:52 am 07:52 Mostly Cloudy 70 21 61 16 73 73 NNW 9 15 29.91 1013 10 16.09344 0 0
8:52 am 08:52 Partly Cloudy 73 23 59 15 61 61 NNW 12 19 29.94 1014 10 16.09344 0 0
9:52 am 09:52 Partly Cloudy 75 24 57 14 54 54 NNW 8 13 29.94 1014 10 16.09344 0 0
10:52 am 10:52 Partly Cloudy 79 26 55 13 45 45 NNW 8 13 29.94 1014 10 16.09344 0 0
11:52 am 11:52 Partly Cloudy 81 27 55 13 42 42 NNW 9 15 29.94 1014 10 16.09344 0 0
12:52 pm 12:52 Partly Cloudy 82 28 57 14 42 42 N 9 15 29.94 1014 10 16.09344 0 0
1:52 pm 13:52 Partly Cloudy 81 27 55 13 42 42 NE 8 13 29.91 1013 10 16.09344 0 0
2:52 pm 14:52 Mostly Sunny 84 29 55 13 37 37 N 7 11 29.91 1013 10 16.09344 0 0
3:52 pm 15:52 Mostly Sunny 84 29 54 12 35 35 N 14 22 29.88 1012 10 16.09344 0 0
4:52 pm 16:52 Mostly Sunny 84 29 54 12 35 35 NNW 10 17 29.88 1012 10 16.09344 0 0
5:52 pm 17:52 Mostly Sunny 82 28 54 12 37 37 N 6 9 29.88 1012 10 16.09344 0 0
6:52 pm 18:52 Mostly Sunny 82 28 54 12 37 37 NNW 7 11 29.91 1013 10 16.09344 0 0
7:52 pm 19:52 Mostly Clear 79 26 54 12 42 42 NNW 6 9 29.91 1013 10 16.09344 0 0
8:52 pm 20:52 Mostly Cloudy 77 25 55 13 47 47 N 7 11 29.94 1014 10 16.09344 0 0
9:52 pm 21:52 Mostly Cloudy 75 24 57 14 54 54 NNW 6 9 29.94 1014 10 16.09344 0 0
10:52 pm 22:52 Mostly Cloudy 75 24 55 13 50 50 NNW 10 17 29.94 1014 10 16.09344 0 0
11:52 pm 23:52 Mostly Clear 72 22 55 13 57 57 NNW 10 17 29.97 1015 10 16.09344 0 0

Powered by AerisWeather